This demonstration page uses our WeatherBlox Daily Observations layout. Learn more.

Left ArrowRight Arrow

39.92423, -83.80882

Hourly Observations for January 3, 2015

Temp ( °F °C ) Dew Point ( °F °C ) Humidity (%) Winds ( mph kmh ) Pressure ( in mb ) Visibility ( mi km ) Precip ( " mm )
12:56 am 00:56 Cloudy 32 0 30 -1.1 92 92 SE 8 13 30.26 1025 7 11 0.00 0.00
1:56 am 01:56 Mostly Cloudy 33 0.5 30 -1.1 89 89 SE 8 13 30.26 1025 8 13 0.00 0.00
2:56 am 02:56 Cloudy with Light Wintry Mix 33 0.5 31 -0.5 93 93 SE 9 15 30.24 1024 4 6 0.00 0.03
3:12 am 03:12 Cloudy with Light Wintry Mix 34 1 32 0 93 93 ESE 10 17 30.27 1025 4 6 0.00 0.03
3:44 am 03:44 Cloudy with Mist and Fog 34 1 32 0 93 93 ESE 14 22 30.24 1024 5 8 0.00 0.03
3:56 am 03:56 Cloudy with Mist and Fog 33 0.5 32 0 96 96 ESE 14 22 30.19 1022 5 8 0.00 0.03
4:21 am 04:21 Cloudy with Light Wintry Mix 34 1 32 0 93 93 ESE 12 19 30.21 1023 4 6 0.00 0.03
4:49 am 04:49 Mostly Cloudy with Light Rain 34 1 34 1 100 100 SE 13 20 30.18 1022 4 6 0.00 0.03
4:56 am 04:56 Mostly Cloudy with Light Rain 33 0.5 33 0.5 100 100 SE 12 19 30.15 1021 3 5 0.00 0.03
5:06 am 05:06 Cloudy with Light Rain 34 1 34 1 100 100 SE 14 22 30.18 1022 3 5 0.00 0.03
5:26 am 05:26 Cloudy with Light Rain 34 1 34 1 100 100 SE 12 19 30.18 1022 3 5 0.00 0.03
5:46 am 05:46 Cloudy with Light Rain 34 1 34 1 100 100 SE 13 20 30.18 1022 2 3 0.00 0.03
5:56 am 05:56 Cloudy with Light Rain 34 1.1 33 0.5 96 96 SE 12 19 30.14 1021 2 3 0.00 0.03
6:06 am 06:06 Cloudy with Light Rain 34 1 34 1 100 100 SE 12 19 30.18 1022 3 4 0.00 0.03
6:37 am 06:37 Cloudy with Light Rain 34 1 34 1 100 100 SE 13 20 30.15 1021 3 5 0.00 0.03
6:56 am 06:56 Cloudy with Light Rain 34 1.1 34 1.1 100 100 SE 9 15 30.11 1020 4 6 0.00 0.03
7:56 am 07:56 Cloudy with Mist and Fog 35 1.6 35 1.6 100 100 SE 12 19 30.07 1018 4 6 0.00 0.03
8:56 am 08:56 Cloudy with Mist and Fog 36 2.2 36 2.2 100 100 SSE 12 19 30.09 1019 5 8 0.00 0.03
9:16 am 09:16 Cloudy with Light Rain 37 3 37 3 100 100 SE 10 17 30.09 1019 2 3 0.00 0.03
9:27 am 09:27 Cloudy with Light Rain 37 3 37 3 100 100 SE 12 19 30.09 1019 3 5 0.00 0.03
9:56 am 09:56 Cloudy with Mist and Fog 38 3.3 38 3.3 100 100 SSE 12 19 30.06 1018 5 8 0.00 0.03
10:03 am 10:03 Cloudy with Mist and Fog 39 4 39 4 100 100 SSE 14 22 30.06 1018 4 6 0.00 0.00
10:09 am 10:09 Cloudy with Mist and Fog 39 4 39 4 100 100 SSE 14 22 30.06 1018 2 2 0.00 0.00
10:12 am 10:12 Cloudy with Mist and Fog 39 4 39 4 100 100 SSE 13 20 30.06 1018 1 2 0.00 0.00
10:33 am 10:33 Cloudy with Mist and Fog 39 4 39 4 100 100 SSE 13 20 30.03 1017 1 1 0.00 0.00
10:41 am 10:41 Cloudy with Mist and Fog 39 4 39 4 100 100 SSE 13 20 30.03 1017 1 2 0.00 0.03
10:49 am 10:49 Cloudy with Mist and Fog 39 4 39 4 100 100 SSE 12 19 30.03 1017 2 3 0.00 0.03
10:56 am 10:56 Cloudy with Mist and Fog 41 5 41 5 100 100 SSE 14 22 30.03 1017 2 3 0.00 0.03
11:01 am 11:01 Cloudy with Mist and Fog 39 4 39 4 100 100 SSE 14 22 30.03 1017 1 2 0.00 0.00
11:10 am 11:10 Cloudy with Mist and Fog 41 5 41 5 100 100 SSE 13 20 30.03 1017 1 1 0.00 0.00
11:56 am 11:56 Cloudy with Mist and Fog 41 5 41 5 100 100 SSE 8 13 29.98 1015 1 2 0.00 0.00
12:00 pm 12:00 Cloudy with Mist and Fog 41 5 41 5 100 100 SSE 8 13 29.97 1015 2 2 0.00 0.00
12:12 pm 12:12 Cloudy with Light Rain 43 6 43 6 100 100 SSE 8 13 29.97 1015 1 2 0.00 0.03
12:23 pm 12:23 Cloudy with Rain 43 6 43 6 100 100 SSE 9 15 29.97 1015 1 1 0.00 0.03
12:33 pm 12:33 Cloudy with Rain 43 6 43 6 100 100 S 6 9 29.97 1015 1 2 0.00 0.03
12:43 pm 12:43 Cloudy with Light Rain 43 6 43 6 100 100 S 6 9 30.00 1016 2 3 0.00 0.03
12:56 pm 12:56 Cloudy with Light Rain 44 6.6 44 6.6 100 100 S 8 13 29.96 1015 1 2 0.00 0.03
1:01 pm 13:01 Cloudy with Light Rain 45 7 45 7 100 100 S 8 13 29.97 1015 2 2 0.00 0.03
1:16 pm 13:16 Cloudy with Light Rain 46 8 46 8 100 100 S 8 13 29.97 1015 1 2 0.00 0.03
1:30 pm 13:30 Cloudy with Heavy Rain 46 8 46 8 100 100 S 6 9 29.94 1014 1 1 0.00 0.03
1:38 pm 13:38 Cloudy with Rain 46 8 46 8 100 100 S 6 9 29.94 1014 1 2 0.00 0.03
1:45 pm 13:45 Cloudy with Light Rain 46 8 46 8 100 100 S 7 11 29.94 1014 2 2 0.00 0.03
1:56 pm 13:56 Cloudy with Light Rain 47 8.3 47 8.3 100 100 S 9 15 29.91 1013 1 2 0.00 0.03
2:12 pm 14:12 Cloudy with Light Rain 48 9 48 9 100 100 S 8 13 29.88 1012 2 2 0.00 0.03
2:29 pm 14:29 Cloudy with Light Rain 48 9 48 9 100 100 S 8 13 29.88 1012 3 5 0.00 0.03
2:32 pm 14:32 Cloudy with Light Rain 48 9 48 9 100 100 S 8 13 29.88 1012 3 4 0.00 0.03
2:34 pm 14:34 Cloudy with Light Rain 48 9 48 9 100 100 S 10 17 29.88 1012 2 3 0.00 0.03
2:43 pm 14:43 Cloudy with Light Rain 48 9 48 9 100 100 S 8 13 29.88 1012 3 4 0.00 0.03
2:56 pm 14:56 Cloudy with Light Rain 49 9.4 49 9.4 100 100 S 10 17 29.88 1012 3 4 0.00 0.03
3:15 pm 15:15 Cloudy with Light Rain 48 9 48 9 100 100 S 7 11 29.88 1012 3 5 0.00 0.03
3:23 pm 15:23 Cloudy with Light Rain 48 9 48 9 100 100 S 8 13 29.88 1012 3 4 0.00 0.03
3:42 pm 15:42 Cloudy with Light Rain 48 9 48 9 100 100 S 6 9 29.85 1011 2 2 0.00 0.03
3:56 pm 15:56 Cloudy with Light Rain 47 8.3 47 8.3 100 100 SSE 9 15 29.86 1011 2 2 0.00 0.03
4:56 pm 16:56 Cloudy with Light Rain 48 8.8 48 8.8 100 100 SSE 12 19 29.81 1010 2 3 0.00 0.03
5:02 pm 17:02 Cloudy with Light Rain 48 9 48 9 100 100 SSE 9 15 29.80 1009 3 5 0.00 0.03
5:23 pm 17:23 Cloudy with Mist and Fog 48 9 48 9 100 100 S 7 11 29.83 1010 6 10 0.00 0.03
5:42 pm 17:42 Cloudy 54 12 54 12 100 100 S 10 17 29.80 1009 10 16 0.00 0.03
5:49 pm 17:49 Cloudy 54 12 54 12 100 100 S 10 17 29.83 1010 10 16 0.00 0.03
5:56 pm 17:56 Cloudy 54 12.2 54 12.2 100 100 SSW 12 19 29.82 1010 10 16 0.00 0.03
6:03 pm 18:03 Cloudy 55 13 55 13 100 100 SSW 13 20 29.80 1009 10 16 0.00 0.00
6:21 pm 18:21 Cloudy 55 13 55 13 100 100 SSW 13 20 29.83 1010 10 16 0.00 0.00
6:56 pm 18:56 Cloudy 57 13.8 56 13.3 97 97 SSW 14 22 29.84 1011 10 16 0.00 0.00
7:19 pm 19:19 Cloudy with Mist and Fog 57 14 57 14 100 100 SSW 14 22 29.83 1010 3 5 0.00 0.00
7:56 pm 19:56 Cloudy 58 14.4 57 13.8 96 96 SSW 15 24 29.83 1010 10 16 0.00 0.00
8:07 pm 20:07 Cloudy 57 14 57 14 100 100 SSW 12 19 29.83 1010 10 16 0.00 0.00
8:37 pm 20:37 Cloudy 57 14 57 14 100 100 SSW 16 26 29.83 1010 10 16 0.00 0.00
8:56 pm 20:56 Cloudy with Mist and Fog 58 14.4 58 14.4 100 100 SSW 14 22 29.83 1010 3 4 0.00 0.00
9:06 pm 21:06 Cloudy with Mist and Fog 57 14 57 14 100 100 SSW 14 22 29.83 1010 5 8 0.00 0.00
9:46 pm 21:46 Cloudy with Mist and Fog 57 14 57 14 100 100 SSW 13 20 29.80 1009 3 4 0.00 0.00
9:56 pm 21:56 Cloudy with Mist and Fog 58 14.4 58 14.4 100 100 S 10 17 29.82 1010 4 6 0.00 0.00
10:26 pm 22:26 Cloudy 57 14 57 14 100 100 SSW 13 20 29.80 1009 10 16 0.00 0.00
10:33 pm 22:33 Cloudy 57 14 57 14 100 100 SSW 13 20 29.80 1009 10 16 0.00 0.00
10:47 pm 22:47 Cloudy 59 15 57 14 94 94 SSW 13 20 29.80 1009 10 16 0.00 0.00
10:56 pm 22:56 Cloudy 58 14.4 57 13.8 96 96 SSW 15 24 29.79 1009 10 16 0.00 0.00
11:56 pm 23:56 Cloudy with Mist and Fog 58 14.4 58 14.4 100 100 SSW 13 20 29.79 1009 4 6 0.00 0.00

Powered by AerisWeather